Temp
15 14 15 17 15 18 17 15 14 15 17 17 18 18 18 18 16 19 20 19 18 19 19 20 20 21 21 18 16 15 13 12 10 9 8 7 9 10 11 12 12 12 12 11
13 13 16 17 16 15 14 15 16 17 17 15 15 17 18 18 19 19 19 20 20 19 19 19 18 18 19 20 17 14 13 12 11 9 8 9 8 8 11 12 11 11 11 11
16 18 15 15 15 16 14 14 16 15 15 14 13 17 15 16 16 17 17 18 16 16 18 19 15 16 17 15 15 15 14 12 10 9 8 8 8 8 7 8 10 10 10 11
14 15 16 14 14 14 16 15 15 15 14 15 15 17 17 18 18 18 18 16 15 15 14 14 13 12 15 18 16 14 12 10 10 9 8 8 8 7 8 7 9 10 10 10
16 16 15 14 15 14 16 17 15 14 13 13 14 13 19 16 18 18 17 17 16 15 15 14 13 14 17 16 15 14 12 11 9 9 9 8 8 8 9 8 8 8 8 8
13 14 15 15 14 14 15 16 13 10 12 12 14 14 21 17 19 21 20 21 17 16 14 13 13 14 14 12 11 11 11 10 9 8 8 8 7 8 8 7 7 6 7 7
15 14 14 15 16 14 15 14 12 11 9 13 13 13 20 20 20 18 18 17 17 14 12 12 11 9 11 9 8 8 8 8 9 8 8 8 8 9 9 9 6 5 5 6
14 17 15 13 15 15 12 14 12 13 12 17 9 14 19 21 18 16 15 15 14 13 12 12 11 8 9 9 8 8 8 8 8 8 8 8 8 8 8 8 7 7 7 7
13 14 14 13 15 16 14 13 15 13 14 11 17 16 18 19 17 18 17 14 13 13 13 13 11 10 10 9 8 9 9 9 9 8 8 8 8 8 8 8 8 9 8 7
16 15 15 15 14 14 14 14 14 11 13 13 15 16 17 19 21 18 15 13 13 12 12 12 11 10 10 9 9 8 7 8 8 8 8 8 7 8 8 8 8 8 9 8
14 13 14 14 12 14 13 13 12 13 13 15 14 17 18 20 20 14 12 13 12 8 7 7 7 7 7 7 8 8 8 7 7 7 6 6 6 6 7 7 8 8 7 7
13 13 12 14 12 13 13 15 14 14 14 13 14 14 17 16 16 10 5 5 5 5 5 5 5 6 6 6 6 6 6 7 8 8 7 7 7 6 6 6 6 7 7 7
12 11 11 11 12 9 11 12 12 12 9 11 11 12 16 12 4 5 5 5 5 5 5 5 5 5 5 5 5 5 5 5 5 6 7 7 7 6 6 6 6 5 5 6
11 10 11 11 12 12 12 11 11 10 11 11 11 12 13 4 3 2 4 4 5 5 5 5 5 5 5 5 5 4 4 4 3 3 4 5 5 6 5 6 5 5 4 4
9 10 11 11 11 9 9 8 9 8 10 9 10 10 6 1 1 1 3 4 4 4 5 4 4 4 4 4 3 3 3 2 2 2 2 3 3 4 5 4 5 4 3 3
8 7 7 7 8 8 8 8 8 9 9 9 9 8 1 2 3 3 3 2 3 3 4 4 4 4 3 3 3 2 2 1 0 1 1 1 2 3 3 4 4 4 3 2
6 6 6 6 7 6 6 7 8 9 10 5 6 1 0 1 3 4 4 2 3 1 1 3 2 2 2 2 2 1 1 0 -0 -0 0 0 0 1 2 2 3 2 1 0
5 5 3 5 2 4 6 4 4 3 2 2 1 -1 -0 1 2 3 2 2 2 2 2 2 2 1 0 0 0 -0 -0 -0 -0 -1 -1 -1 -1 -1 1 1 1 1 -0 -1
5 5 1 2 -1 4 6 3 3 4 2 1 2 2 1 1 0 3 3 2 1 0 1 0 -1 -1 -1 -2 -1 -1 -2 -2 -1 -1 -1 -2 -2 -2 -1 -0 -1 -1 -2 -2
4 4 4 -1 1 -1 3 3 3 2 0 -1 -1 -0 -0 -0 -1 1 2 1 0 1 -1 -1 -2 -2 -3 -3 -3 -4 -4 -3 -2 -2 -3 -3 -3 -2 -2 -1 -2 -2 -3 -3
-6 -8 -1 -4 -4 -3 -1 0 2 -2 -1 -3 -2 -1 -1 -2 -1 1 0 -1 -1 -1 -2 -3 -3 -3 -3 -3 -4 -5 -5 -5 -5 -6 -6 -4 -3 -3 -2 -3 -3 -3 -4 -5
0 -5 -8 -10 -8 -3 -0 1 1 -0 -1 -1 0 1 0 0 -0 -1 -2 -2 -2 -3 -3 -4 -4 -4 -4 -5 -6 -6 -6 -6 -7 -7 -7 -6 -6 -4 -4 -4 -5 -5 -6 -7
-1 -0 -4 -3 -3 1 1 1 3 0 -1 -0 0 1 -0 -1 -1 -2 -3 -3 -3 -4 -4 -5 -6 -7 -6 -7 -8 -8 -8 -9 -9 -9 -9 -8 -7 -5 -6 -6 -7 -8 -8 -8
-0 1 1 1 2 2 2 3 1 2 1 1 -0 -1 -2 -2 -3 -4 -4 -4 -5 -5 -6 -7 -7 -8 -8 -8 -9 -10 -10 -11 -12 -12 -11 -11 -10 -8 -6 -7 -7 -8 -8 -8
1 -1 -2 0 2 2 2 2 2 2 1 -1 -2 -3 -4 -5 -5 -5 -6 -6 -7 -7 -8 -8 -9 -10 -10 -10 -11 -12 -13 -14 -14 -14 -14 -13 -12 -10 -7 -7 -7 -8 -8 -7
1 1 1 0 3 2 3 3 -0 -1 -2 -5 -6 -6 -6 -6 -7 -7 -8 -8 -8 -9 -10 -10 -11 -12 -13 -14 -14 -15 -16 -16 -16 -16 -16 -15 -13 -12 -10 -7 -8 -8 -8 -8
Height
801 813 814 795 805 794 803 810 810 799 784 785 774 764 761 756 755 737 730 728 721 713 706 702 701 703 704 706 708 711 715 719 725 731 738 747 748 755 763 768 775 780 784 789
812 815 793 793 799 808 810 809 800 784 780 786 777 760 753 747 738 734 722 715 715 710 704 694 698 698 698 696 698 702 706 712 715 720 726 735 741 745 752 759 766 772 778 783
795 786 789 797 800 801 809 811 793 793 786 784 779 748 754 738 732 724 721 709 715 711 700 691 698 697 695 690 691 692 696 700 708 716 725 732 738 743 748 751 758 763 770 775
799 786 787 800 797 797 794 790 790 792 797 794 779 748 741 734 727 720 712 716 711 706 706 698 693 687 686 683 684 687 694 699 702 705 713 718 721 728 730 736 746 754 760 765
786 785 789 794 789 790 782 774 786 788 795 795 787 795 728 732 729 718 713 708 708 702 700 695 690 684 678 677 678 683 685 693 701 703 702 706 712 719 724 733 741 747 754 761
787 780 783 779 778 780 779 780 791 805 798 800 777 785 693 734 722 710 707 699 708 705 702 693 688 685 681 678 678 678 682 685 696 703 706 707 711 714 719 727 733 740 747 754
780 781 773 771 776 779 780 791 808 812 829 790 773 785 725 714 711 714 712 709 707 707 707 699 691 685 683 682 682 683 685 686 690 698 703 706 707 708 712 715 721 728 737 745
783 767 772 773 767 770 783 781 802 797 804 767 796 767 714 710 709 706 707 709 710 708 703 700 694 690 686 684 681 681 683 685 688 690 695 699 705 708 711 713 715 720 724 730
783 768 759 765 760 762 773 778 765 776 769 789 753 742 721 701 705 703 704 711 714 711 705 698 695 690 685 686 684 682 683 683 685 688 693 694 694 701 706 707 712 717 721 725
761 765 751 752 757 759 760 761 771 786 780 769 750 740 731 707 690 705 710 715 713 712 711 705 704 702 697 698 698 697 697 696 693 691 691 693 694 693 695 702 707 706 712 718
767 770 757 756 762 754 761 763 765 761 763 749 744 730 713 703 700 720 725 718 722 729 724 717 715 711 710 704 701 701 698 699 699 700 700 697 697 697 695 697 699 702 707 711
767 760 767 751 750 747 749 748 752 752 742 740 733 729 712 713 715 737 755 752 743 738 734 731 725 722 716 710 708 709 708 700 698 698 695 691 692 694 694 696 695 694 696 702
765 767 762 757 748 761 758 752 752 752 761 742 742 730 714 731 758 759 759 760 753 746 736 734 729 724 720 717 714 713 711 705 704 701 697 691 687 689 685 684 688 691 692 691
770 767 762 757 749 753 750 751 752 756 743 735 736 729 723 762 767 770 760 756 759 754 744 738 734 728 725 721 716 715 712 707 705 700 693 691 686 678 675 677 680 681 682 688
767 758 756 746 752 765 764 765 759 756 749 749 733 733 757 779 778 778 770 766 761 758 751 742 739 735 730 720 719 714 712 709 706 698 691 686 676 672 670 671 670 671 673 673
770 772 776 771 761 763 759 754 749 745 740 739 738 741 778 775 773 770 767 769 766 759 750 746 742 736 732 723 717 712 710 707 704 695 691 688 678 668 669 665 661 660 665 667
780 777 775 765 764 769 767 748 743 732 725 748 745 770 776 775 767 761 759 763 759 758 756 749 742 737 736 731 727 719 713 707 701 695 691 685 676 669 665 662 658 654 655 657
776 778 787 767 790 774 741 748 750 754 763 764 768 774 772 769 765 761 760 758 756 751 748 746 741 739 737 730 724 717 712 705 698 695 691 685 678 671 663 659 654 652 651 650
767 771 791 790 805 753 738 755 758 754 761 766 763 759 761 763 762 755 753 752 750 747 742 739 737 734 730 725 718 712 704 701 696 690 685 680 675 670 665 656 652 649 650 650
761 763 767 800 784 799 755 755 752 758 768 767 763 762 762 762 763 750 746 745 743 742 740 738 735 732 728 720 713 708 704 700 695 692 689 683 676 670 664 653 650 649 649 649
815 823 792 802 808 788 767 758 752 785 774 763 759 758 758 760 753 742 740 741 739 737 734 732 729 725 720 716 712 706 701 697 691 688 683 676 668 662 655 650 647 648 646 642
778 809 828 843 835 798 756 754 762 758 752 751 749 746 746 744 741 740 739 736 736 733 729 726 723 719 714 711 708 704 698 694 689 685 676 667 662 655 652 648 647 643 644 637
786 772 796 788 779 751 749 750 742 744 748 744 742 738 738 738 737 737 736 732 730 729 725 721 719 713 706 704 702 696 690 689 682 674 665 660 657 651 647 645 640 640 636 636
765 761 760 760 743 745 741 737 738 736 736 732 733 734 735 735 734 734 732 729 725 721 718 715 711 705 697 693 691 688 683 680 675 668 661 655 651 644 640 635 633 629 628 627
753 758 760 749 738 738 735 731 730 729 729 731 732 733 735 737 734 733 728 724 720 715 710 709 704 698 689 686 681 680 677 673 667 661 654 647 642 636 630 624 619 616 614 618
742 738 745 738 728 729 725 722 726 728 730 734 735 734 734 734 732 730 724 720 717 710 704 700 696 692 684 679 671 671 670 667 660 651 644 639 634 628 622 614 607 604 607 609
Wind_Speed
1 4 9 20 13 5 3 6 12 8 8 4 20 23 18 16 13 25 22 18 20 20 22 30 27 25 26 29 32 37 39 41 41 42 42 38 47 49 46 46 43 41 40 38
4 7 17 2 2 6 6 11 18 14 15 5 14 21 18 19 20 21 23 23 17 17 18 20 14 14 20 28 32 34 39 40 44 43 41 28 35 41 48 49 46 44 42 39
12 10 4 6 3 8 4 7 17 14 6 5 10 13 7 9 8 13 19 21 9 14 20 21 7 11 18 25 29 34 39 41 40 38 34 28 26 23 38 42 45 46 44 42
6 4 6 3 7 9 15 11 13 10 6 7 5 15 6 8 10 9 15 8 12 12 9 10 10 8 18 27 27 29 31 35 38 41 41 40 32 25 37 41 49 49 47 46
7 2 2 4 10 7 10 5 7 3 4 5 1 3 1 4 6 11 9 8 7 8 8 11 11 16 22 16 19 25 28 31 34 40 43 44 35 31 28 35 42 46 47 45
7 0 6 8 7 9 2 2 4 4 2 5 9 8 20 4 4 2 8 14 10 9 11 12 10 14 20 13 10 18 25 30 32 36 39 39 33 31 29 35 38 43 44 45
2 5 4 4 3 1 3 4 3 3 1 9 3 3 16 10 16 8 10 9 7 9 9 11 11 11 19 10 4 11 19 25 29 33 36 38 38 40 40 41 39 41 43 48
4 15 6 5 9 9 8 9 6 7 5 12 3 7 18 7 8 11 6 7 6 9 8 10 10 7 15 12 4 10 17 20 26 32 36 37 37 35 36 38 39 41 44 50
4 10 3 6 4 4 4 6 3 3 5 3 12 14 15 18 7 4 3 6 8 10 9 9 10 10 13 12 10 11 15 20 24 29 33 36 38 39 38 38 38 38 40 44
4 11 6 2 3 5 7 2 2 1 4 8 7 14 12 22 26 7 9 10 13 9 9 10 14 18 26 21 18 15 15 18 19 24 31 35 38 40 42 40 41 41 41 41
2 3 6 1 6 11 2 4 4 2 5 12 18 13 10 22 21 9 11 12 15 18 18 18 17 25 28 30 32 27 22 22 23 24 26 29 33 35 37 42 43 43 41 41
9 5 11 19 6 6 5 12 7 10 10 10 11 11 12 13 15 20 19 16 17 17 18 16 13 20 25 27 30 32 34 34 34 35 30 31 34 35 36 42 45 44 44 42
4 3 4 6 6 4 2 2 4 10 5 12 11 7 8 15 19 19 18 17 16 16 17 17 18 16 23 26 27 28 29 31 32 30 33 36 34 36 41 44 46 45 45 46
3 5 12 15 15 8 11 11 11 13 9 13 13 20 12 14 14 16 12 15 18 18 17 16 16 15 22 26 26 28 28 30 33 32 28 32 32 33 37 40 41 43 44 44
2 14 16 18 12 6 7 12 17 16 16 11 19 19 5 10 13 14 12 15 14 17 18 16 16 15 23 25 28 30 29 31 31 30 34 33 28 32 33 36 39 41 43 45
3 3 5 11 18 13 19 17 18 21 20 15 18 9 2 2 7 9 8 10 15 15 14 13 15 14 21 27 29 31 30 34 35 32 31 33 34 28 33 36 36 39 42 41
1 3 5 18 12 8 12 21 20 17 17 2 8 3 2 4 7 11 11 7 12 12 15 12 15 14 22 25 27 28 30 30 31 31 31 36 38 37 32 30 33 37 38 37
9 10 5 12 7 18 7 6 9 10 8 6 5 4 6 6 5 10 5 5 9 11 11 11 12 18 22 28 26 28 30 31 28 27 27 32 37 37 35 29 27 31 31 35
16 10 3 4 7 10 7 3 3 2 5 5 4 7 6 8 6 3 4 4 8 11 8 13 19 22 24 27 28 28 30 29 28 28 31 35 39 39 35 27 26 28 27 28
1 13 8 2 4 6 1 2 1 4 4 7 7 8 8 4 5 9 8 5 8 13 13 17 21 22 22 26 25 26 27 27 27 28 31 33 37 37 33 28 24 25 26 26
3 2 7 6 4 7 4 5 1 5 5 5 5 8 8 5 6 9 10 7 10 14 18 21 21 19 22 22 23 26 25 26 28 31 34 33 32 36 33 28 23 24 24 21
5 4 4 2 2 7 4 4 4 6 4 4 5 11 11 8 9 9 11 11 9 12 21 23 20 23 28 24 22 24 27 29 29 32 32 31 34 31 34 25 25 21 23 20
2 6 4 7 6 4 4 8 12 4 7 7 8 11 7 8 11 10 11 13 13 18 22 22 19 26 32 27 23 24 29 28 32 34 34 33 33 31 30 25 22 21 20 17
5 4 10 15 15 17 17 17 6 8 13 13 8 6 5 10 10 11 12 13 14 21 21 23 23 25 30 32 30 29 31 30 31 33 35 34 32 30 28 26 24 22 20 21
7 5 6 13 17 14 16 15 16 15 10 3 3 2 3 5 12 11 13 15 15 22 27 24 23 26 34 36 36 35 34 31 33 34 34 33 31 30 30 28 26 25 28 29
10 18 9 13 19 15 16 17 3 1 1 2 4 6 6 7 11 12 15 18 21 23 29 28 31 32 36 38 39 36 33 32 34 34 32 29 28 28 28 27 25 27 30 27
Wind_Direction
140 125 201 221 202 243 183 238 252 264 264 299 279 276 270 269 273 278 277 267 268 268 278 277 270 267 256 247 240 233 226 219 210 202 200 208 213 218 219 221 219 218 217 215
49 223 231 48 148 235 249 269 272 276 262 249 272 273 278 264 254 255 269 278 277 287 288 284 280 249 239 244 235 228 226 219 211 203 201 201 204 215 217 217 218 218 217 216
213 237 192 184 160 239 209 235 264 266 303 253 298 280 233 274 248 257 262 263 282 262 274 290 329 261 259 243 234 229 225 219 210 204 196 198 199 208 211 216 217 216 217 217
231 295 204 134 209 202 264 226 256 271 347 279 2 297 174 233 263 276 269 280 265 284 291 282 291 266 250 262 246 231 224 218 210 205 198 193 196 194 209 208 213 215 215 215
250 196 164 171 220 158 240 176 237 191 203 318 274 281 99 101 229 272 295 277 284 317 307 300 291 287 292 272 252 234 218 217 212 208 204 197 198 202 211 204 211 214 214 214
243 330 179 219 217 187 108 98 57 46 96 281 188 179 295 157 243 274 317 318 332 330 323 312 314 323 310 312 251 216 209 205 209 211 210 206 203 199 198 203 205 210 213 212
211 216 219 167 222 117 139 79 313 327 39 232 90 154 254 292 281 267 279 278 301 326 316 326 337 349 344 325 268 206 202 198 203 210 214 214 213 213 212 208 201 201 206 211
214 294 179 180 195 198 184 171 176 220 253 283 98 243 266 250 278 261 272 264 324 325 346 348 344 354 342 325 238 202 205 209 208 211 217 218 219 219 218 219 211 211 210 213
198 262 183 190 183 180 179 179 237 313 264 254 266 274 298 291 304 1 332 336 338 333 333 335 334 356 357 320 280 232 221 220 218 220 223 222 219 220 225 224 223 224 221 219
264 265 189 209 151 217 183 211 233 349 253 250 227 256 269 290 289 308 323 350 335 294 324 348 5 9 17 358 346 325 297 271 255 241 234 232 231 227 227 229 227 224 225 223
226 247 272 119 204 207 196 234 222 236 207 260 267 259 256 272 296 15 353 338 7 21 17 16 14 18 15 14 10 358 342 323 303 280 265 253 248 239 234 235 232 231 228 224
221 203 240 255 235 222 197 253 241 241 252 246 269 265 297 325 339 23 40 22 4 11 6 4 9 8 13 14 13 8 2 6 349 320 293 276 261 254 246 243 240 234 231 228
8 230 286 304 324 42 122 293 276 279 273 246 262 269 304 7 30 21 19 7 4 3 6 360 360 6 9 8 8 3 359 1 357 340 309 288 271 260 253 248 245 242 235 230
192 228 257 270 266 264 273 271 275 268 263 287 269 285 299 355 358 357 6 15 360 356 358 356 356 356 356 357 358 355 352 353 347 345 337 293 270 265 257 254 245 241 236 235
324 269 268 268 287 317 297 290 287 265 265 265 286 286 24 11 353 352 358 358 0 352 348 352 350 342 345 348 348 349 345 343 342 347 345 338 318 294 271 255 249 243 237 233
128 288 337 298 293 292 282 271 260 266 278 264 259 262 20 317 328 332 335 346 343 342 338 340 341 342 339 340 339 340 340 339 338 343 347 343 342 331 297 275 255 242 236 230
252 270 265 271 285 298 278 253 253 255 264 267 252 115 217 280 314 329 322 324 340 331 317 331 331 333 329 328 329 330 329 331 335 335 337 344 344 339 325 298 264 242 231 223
250 254 253 275 316 270 254 68 73 96 98 100 101 198 219 244 282 296 184 322 319 319 311 316 319 320 318 322 324 326 329 328 329 328 327 337 338 333 332 306 274 252 236 222
214 231 250 233 216 281 292 39 92 185 175 176 208 248 252 269 276 214 336 294 300 301 301 311 312 310 315 316 321 326 327 326 325 326 324 327 332 328 323 307 284 261 242 228
112 218 222 121 222 231 173 252 254 117 262 222 203 232 227 249 310 308 313 300 295 295 297 300 301 298 297 306 316 321 317 318 320 323 320 312 316 322 313 309 290 268 245 235
359 24 215 237 250 287 236 260 129 94 246 227 199 225 222 209 215 278 301 290 285 292 300 302 303 296 298 298 311 306 307 306 313 314 314 312 307 315 320 303 289 269 246 233
185 177 222 83 31 292 214 354 150 221 271 226 262 247 224 238 258 265 283 292 287 294 297 298 301 300 302 300 305 298 295 304 307 305 306 309 309 303 304 297 278 255 238 216
271 199 190 188 218 244 224 234 277 205 229 259 243 242 228 259 269 271 279 284 288 288 287 291 288 291 293 293 293 289 294 306 308 307 305 305 304 301 284 277 254 240 224 216
244 232 257 269 263 256 266 272 259 270 269 274 241 244 232 252 268 281 285 287 291 291 287 292 291 286 288 294 296 291 301 306 304 300 299 299 297 295 283 259 247 231 222 212
234 184 218 252 261 270 266 265 265 266 278 270 284 251 268 287 281 283 282 284 287 290 294 295 287 288 289 295 294 297 301 303 298 294 291 290 289 286 282 257 245 237 237 229
226 240 232 252 262 260 271 277 45 252 287 33 334 315 291 277 279 286 283 287 291 291 295 297 294 293 293 296 295 297 297 297 292 288 287 285 284 283 280 269 257 248 248 245